• In Belarus
  • List of Countries
  • For 7 days
  • Water Temperature
  • Satellite Maps
  • Weather Map
  • Weather Widgets
  • user-avatar
    Login

    Hourly Weather Shusha

    Today, 20 July, Saturday

    Time Temperature Precipitation Wind Pressure Humidity
    00:00 +20°C° 0 mm 2 mps 660 mmHg 63%
    01:00 +21°C° 0 mm 1 mps 660 mmHg 64%
    02:00 +21°C° 0 mm 1 mps 660 mmHg 64%
    03:00 +20°C° 0 mm 1 mps 659 mmHg 67%
    04:00 +21°C° 0 mm 1 mps 660 mmHg 66%
    05:00 +22°C° 0 mm 1 mps 661 mmHg 65%
    06:00 +22°C° 0 mm 1 mps 662 mmHg 64%
    07:00 +23°C° 0 mm 1 mps 662 mmHg 59%
    08:00 +25°C° 0 mm 2 mps 662 mmHg 53%
    09:00 +26°C° 0 mm 3 mps 663 mmHg 48%
    10:00 +27°C° 0 mm 3 mps 663 mmHg 44%
    11:00 +28°C° 0 mm 3 mps 663 mmHg 40%
    12:00 +29°C° 0 mm 4 mps 663 mmHg 36%
    13:00 +30°C° 0 mm 4 mps 663 mmHg 36%
    14:00 +30°C° 0 mm 4 mps 662 mmHg 35%
    15:00 +30°C° 0 mm 4 mps 662 mmHg 34%
    16:00 +29°C° 0 mm 4 mps 662 mmHg 38%
    17:00 +28°C° 0 mm 4 mps 662 mmHg 41%
    18:00 +28°C° 0 mm 4 mps 662 mmHg 45%
    19:00 +26°C° 0 mm 3 mps 662 mmHg 50%
    20:00 +24°C° 0 mm 2 mps 662 mmHg 55%
    21:00 +21°C° 0 mm 2 mps 661 mmHg 60%
    22:00 +20°C° 0 mm 2 mps 662 mmHg 59%
    23:00 +20°C° 0 mm 2 mps 662 mmHg 58%

    Tomorrow, 21 July, Sunday

    Time Temperature Precipitation Wind Pressure Humidity
    00:00 +20°C° 0 mm 2 mps 662 mmHg 56%
    01:00 +20°C° 0 mm 2 mps 662 mmHg 56%
    02:00 +20°C° 0 mm 2 mps 662 mmHg 55%
    03:00 +20°C° 0 mm 2 mps 662 mmHg 55%
    04:00 +20°C° 0 mm 2 mps 662 mmHg 55%
    05:00 +21°C° 0 mm 2 mps 662 mmHg 55%
    06:00 +22°C° 0 mm 1 mps 662 mmHg 55%
    07:00 +24°C° 0 mm 2 mps 663 mmHg 51%
    08:00 +25°C° 0 mm 2 mps 663 mmHg 46%
    09:00 +27°C° 0 mm 2 mps 663 mmHg 41%
    10:00 +28°C° 0 mm 3 mps 663 mmHg 39%
    11:00 +29°C° 0 mm 3 mps 663 mmHg 36%
    12:00 +30°C° 0 mm 3 mps 663 mmHg 34%
    13:00 +31°C° 0 mm 3 mps 662 mmHg 33%
    14:00 +31°C° 0 mm 3 mps 662 mmHg 32%
    15:00 +33°C° 0 mm 3 mps 661 mmHg 31%
    16:00 +31°C° 0 mm 3 mps 661 mmHg 34%
    17:00 +31°C° 0 mm 2 mps 661 mmHg 37%
    18:00 +30°C° 0 mm 2 mps 661 mmHg 40%
    19:00 +28°C° 0 mm 2 mps 660 mmHg 44%
    20:00 +26°C° 0 mm 1 mps 660 mmHg 49%
    21:00 +23°C° 0 mm 1 mps 660 mmHg 53%
    22:00 +23°C° 0 mm 1 mps 660 mmHg 53%
    23:00 +23°C° 0 mm 2 mps 660 mmHg 53%

    Day after tomorrow, 22 July, Monday

    Time Temperature Precipitation Wind Pressure Humidity
    00:00 +23°C° 0 mm 2 mps 660 mmHg 53%
    01:00 +23°C° 0 mm 2 mps 659 mmHg 53%
    02:00 +23°C° 0 mm 1 mps 659 mmHg 52%
    03:00 +22°C° 0 mm 1 mps 659 mmHg 52%
    04:00 +23°C° 0 mm 1 mps 659 mmHg 52%
    05:00 +24°C° 0 mm 1 mps 659 mmHg 52%
    06:00 +24°C° 0 mm 1 mps 659 mmHg 52%
    07:00 +26°C° 0 mm 1 mps 660 mmHg 48%
    08:00 +27°C° 0 mm 1 mps 660 mmHg 44%
    09:00 +29°C° 0 mm 2 mps 660 mmHg 39%
    10:00 +30°C° 0 mm 2 mps 660 mmHg 38%
    11:00 +31°C° 0 mm 3 mps 660 mmHg 37%
    12:00 +33°C° 0 mm 3 mps 660 mmHg 36%
    13:00 +33°C° 0 mm 3 mps 660 mmHg 36%
    14:00 +33°C° 0 mm 3 mps 659 mmHg 36%
    15:00 +33°C° 0 mm 3 mps 659 mmHg 36%
    16:00 +31°C° 0 mm 3 mps 659 mmHg 40%
    17:00 +30°C° 0 mm 3 mps 658 mmHg 44%
    18:00 +29°C° 0 mm 3 mps 658 mmHg 48%
    19:00 +27°C° 0 mm 2 mps 658 mmHg 55%
    20:00 +25°C° 0 mm 2 mps 658 mmHg 62%
    21:00 +23°C° 0 mm 1 mps 657 mmHg 69%
    22:00 +22°C° 0 mm 1 mps 657 mmHg 70%
    23:00 +22°C° 0 mm 1 mps 657 mmHg 71%

    23 July, Tuesday

    Time Temperature Precipitation Wind Pressure Humidity
    00:00 +21°C° 0 mm 1 mps 657 mmHg 72%
    01:00 +21°C° 0 mm 1 mps 657 mmHg 73%
    02:00 +21°C° 0 mm 1 mps 657 mmHg 73%
    03:00 +20°C° 0 mm 1 mps 657 mmHg 74%
    04:00 +21°C° 0 mm 1 mps 657 mmHg 72%
    05:00 +21°C° 0 mm 1 mps 658 mmHg 70%
    06:00 +20°C° 0 mm 2 mps 658 mmHg 68%
    07:00 +23°C° 0 mm 2 mps 658 mmHg 62%
    08:00 +25°C° 0 mm 2 mps 658 mmHg 55%
    09:00 +26°C° 0 mm 2 mps 659 mmHg 49%
    10:00 +27°C° 0 mm 3 mps 659 mmHg 46%
    11:00 +29°C° 0 mm 3 mps 659 mmHg 43%
    12:00 +30°C° 0 mm 3 mps 659 mmHg 40%
    13:00 +30°C° 0 mm 4 mps 658 mmHg 40%
    14:00 +30°C° 0 mm 4 mps 658 mmHg 40%
    15:00 +32°C° 0 mm 4 mps 657 mmHg 40%
    16:00 +30°C° 0 mm 4 mps 657 mmHg 44%
    17:00 +28°C° 0 mm 3 mps 657 mmHg 48%
    18:00 +27°C° 0 mm 3 mps 657 mmHg 52%
    19:00 +26°C° 0 mm 2 mps 657 mmHg 56%
    20:00 +24°C° 0 mm 2 mps 657 mmHg 61%
    21:00 +22°C° 0 mm 1 mps 656 mmHg 66%
    22:00 +22°C° 0 mm 1 mps 656 mmHg 66%
    23:00 +22°C° 0 mm 1 mps 656 mmHg 67%

    24 July, Wednesday

    Time Temperature Precipitation Wind Pressure Humidity
    00:00 +21°C° 0 mm 1 mps 656 mmHg 68%
    01:00 +21°C° 0 mm 1 mps 656 mmHg 67%
    02:00 +21°C° 0 mm 1 mps 656 mmHg 67%
    03:00 +20°C° 0 mm 1 mps 656 mmHg 66%
    04:00 +21°C° 0 mm 1 mps 657 mmHg 65%
    05:00 +21°C° 0 mm 1 mps 657 mmHg 63%
    06:00 +21°C° 0 mm 1 mps 657 mmHg 62%
    07:00 +23°C° 0 mm 2 mps 658 mmHg 56%
    08:00 +25°C° 0 mm 2 mps 658 mmHg 49%
    09:00 +27°C° 0 mm 2 mps 658 mmHg 43%
    10:00 +28°C° 0 mm 2 mps 658 mmHg 41%
    11:00 +29°C° 0 mm 2 mps 658 mmHg 39%
    12:00 +31°C° 0 mm 3 mps 658 mmHg 37%
    13:00 +31°C° 0 mm 3 mps 658 mmHg 36%
    14:00 +33°C° 0 mm 3 mps 658 mmHg 35%
    15:00 +33°C° 0 mm 3 mps 658 mmHg 35%
    16:00 +31°C° 0 mm 2 mps 657 mmHg 38%
    17:00 +30°C° 0 mm 2 mps 657 mmHg 40%
    18:00 +30°C° 0 mm 2 mps 657 mmHg 43%
    19:00 +28°C° 0 mm 1 mps 657 mmHg 48%
    20:00 +26°C° 0 mm 1 mps 657 mmHg 52%
    21:00 +24°C° 0 mm 1 mps 657 mmHg 56%
    22:00 +24°C° 0 mm 1 mps 657 mmHg 57%
    23:00 +23°C° 0 mm 1 mps 657 mmHg 57%

    25 July, Thursday

    Time Temperature Precipitation Wind Pressure Humidity
    00:00 +23°C° 0 mm 1 mps 657 mmHg 57%
    01:00 +23°C° 0 mm 1 mps 657 mmHg 57%
    02:00 +22°C° 0 mm 1 mps 657 mmHg 58%
    03:00 +22°C° 0 mm 1 mps 656 mmHg 58%
    04:00 +23°C° 0 mm 1 mps 657 mmHg 57%
    05:00 +23°C° 0 mm 1 mps 657 mmHg 57%
    06:00 +24°C° 0 mm 1 mps 657 mmHg 56%
    07:00 +25°C° 0 mm 1 mps 658 mmHg 52%
    08:00 +27°C° 0 mm 2 mps 658 mmHg 48%
    09:00 +29°C° 0 mm 2 mps 659 mmHg 43%
    10:00 +30°C° 0 mm 2 mps 658 mmHg 41%
    11:00 +31°C° 0 mm 3 mps 658 mmHg 38%
    12:00 +33°C° 0 mm 3 mps 658 mmHg 36%
    13:00 +33°C° 0 mm 3 mps 658 mmHg 35%
    14:00 +34°C° 0 mm 3 mps 657 mmHg 33%
    15:00 +34°C° 0 mm 4 mps 657 mmHg 32%
    16:00 +33°C° 0 mm 3 mps 657 mmHg 35%
    17:00 +31°C° 0 mm 3 mps 656 mmHg 38%
    18:00 +30°C° 0 mm 3 mps 656 mmHg 42%
    19:00 +28°C° 0 mm 2 mps 656 mmHg 46%
    20:00 +25°C° 0 mm 2 mps 656 mmHg 50%
    21:00 +23°C° 0 mm 1 mps 656 mmHg 55%
    22:00 +23°C° 0 mm 1 mps 656 mmHg 56%
    23:00 +22°C° 0 mm 1 mps 655 mmHg 57%
    Show more